owner,sensor,date,latitude,longitude,vertical_datum,wind_speed,wind_to_direction,wind_speed_of_gust,qcFlag 
LOOP,urn:ioos:station:wmo:lopl1:1,2013-05-01T00:04:00Z,28.8850,-90.0250,10.0,6.1,189.0,7.9,'11111222,11111222,11111222' 
LOOP,urn:ioos:station:wmo:lopl1:1,2013-05-01T00:19:00Z,28.8850,-90.0250,10.0,5.9,188.0,8.6,'11111222,11111222,11111222' 
LOOP,urn:ioos:station:wmo:lopl1:1,2013-05-01T00:34:00Z,28.8850,-90.0250,10.0,5.5,198.0,8.3,'11111222,11111222,11111222' 
LOOP,urn:ioos:station:wmo:lopl1:1,2013-05-01T00:49:00Z,28.8850,-90.0250,10.0,6.0,162.0,7.1,'11111222,11111222,11111222' 
LOOP,urn:ioos:station:wmo:lopl1:1,2013-05-01T01:04:00Z,28.8850,-90.0250,10.0,5.3,156.0,6.0,'11111222,11111222,11111222' 
LOOP,urn:ioos:station:wmo:lopl1:1,2013-05-01T01:19:00Z,28.8850,-90.0250,10.0,6.0,155.0,6.5,'11111222,11111222,11111222' 
LOOP,urn:ioos:station:wmo:lopl1:1,2013-05-01T01:34:00Z,28.8850,-90.0250,10.0,6.2,141.0,6.8,'11111222,11111222,11111222' 
LOOP,urn:ioos:station:wmo:lopl1:1,2013-05-01T01:49:00Z,28.8850,-90.0250,10.0,6.4,137.0,6.9,'11111222,11111222,11111222' 
LOOP,urn:ioos:station:wmo:lopl1:1,2013-05-01T02:04:00Z,28.8850,-90.0250,10.0,6.4,138.0,7.0,'11111222,11111222,11111222' 
LOOP,urn:ioos:station:wmo:lopl1:1,2013-05-01T02:19:00Z,28.8850,-90.0250,10.0,6.3,142.0,6.9,'11111222,11111222,11111222' 
LOOP,urn:ioos:station:wmo:lopl1:1,2013-05-01T02:34:00Z,28.8850,-90.0250,10.0,5.2,137.0,5.8,'11111222,11111222,11111222' 
LOOP,urn:ioos:station:wmo:lopl1:1,2013-05-01T02:49:00Z,28.8850,-90.0250,10.0,4.9,133.0,5.6,'11111222,11111222,11111222' 
LOOP,urn:ioos:station:wmo:lopl1:1,2013-05-01T03:04:00Z,28.8850,-90.0250,10.0,4.8,120.0,5.3,'11111222,11111222,11111222' 
LOOP,urn:ioos:station:wmo:lopl1:1,2013-05-01T03:19:00Z,28.8850,-90.0250,10.0,5.3,114.0,5.7,'11111222,11111222,11111222' 
LOOP,urn:ioos:station:wmo:lopl1:1,2013-05-01T03:34:00Z,28.8850,-90.0250,10.0,6.9,127.0,7.5,'11111222,11111222,11111222' 
LOOP,urn:ioos:station:wmo:lopl1:1,2013-05-01T03:49:00Z,28.8850,-90.0250,10.0,6.9,131.0,7.5,'11111222,11111222,11111222' 
LOOP,urn:ioos:station:wmo:lopl1:1,2013-05-01T04:04:00Z,28.8850,-90.0250,10.0,6.6,134.0,7.4,'11111222,11111222,11111222' 
LOOP,urn:ioos:station:wmo:lopl1:1,2013-05-01T04:19:00Z,28.8850,-90.0250,10.0,6.5,128.0,7.1,'11111222,11111222,11111222' 
LOOP,urn:ioos:station:wmo:lopl1:1,2013-05-01T04:34:00Z,28.8850,-90.0250,10.0,7.3,134.0,8.2,'11111222,11111222,11111222' 
LOOP,urn:ioos:station:wmo:lopl1:1,2013-05-01T04:49:00Z,28.8850,-90.0250,10.0,7.1,133.0,7.7,'11111222,11111222,11111222' 
LOOP,urn:ioos:station:wmo:lopl1:1,2013-05-01T05:04:00Z,28.8850,-90.0250,10.0,6.0,127.0,6.6,'11111222,11111222,11111222' 
LOOP,urn:ioos:station:wmo:lopl1:1,2013-05-01T05:19:00Z,28.8850,-90.0250,10.0,5.3,119.0,5.9,'11111222,11111222,11111222' 
LOOP,urn:ioos:station:wmo:lopl1:1,2013-05-01T05:34:00Z,28.8850,-90.0250,10.0,5.8,118.0,6.3,'11111222,11111222,11111222' 
LOOP,urn:ioos:station:wmo:lopl1:1,2013-05-01T05:49:00Z,28.8850,-90.0250,10.0,4.6,104.0,5.1,'11111222,11111222,11111222' 
LOOP,urn:ioos:station:wmo:lopl1:1,2013-05-01T06:04:00Z,28.8850,-90.0250,10.0,4.7,103.0,5.2,'11111222,11111222,11111222' 
LOOP,urn:ioos:station:wmo:lopl1:1,2013-05-01T06:19:00Z,28.8850,-90.0250,10.0,5.3,98.0,5.7,'11111222,11111222,11111222' 
LOOP,urn:ioos:station:wmo:lopl1:1,2013-05-01T06:34:00Z,28.8850,-90.0250,10.0,5.6,89.0,5.9,'11111222,11111222,11111222' 
LOOP,urn:ioos:station:wmo:lopl1:1,2013-05-01T06:49:00Z,28.8850,-90.0250,10.0,5.6,79.0,6.0,'11111222,11111222,11111222' 
LOOP,urn:ioos:station:wmo:lopl1:1,2013-05-01T07:04:00Z,28.8850,-90.0250,10.0,5.8,84.0,6.4,'11111222,11111222,11111222' 
LOOP,urn:ioos:station:wmo:lopl1:1,2013-05-01T07:19:00Z,28.8850,-90.0250,10.0,6.7,84.0,7.2,'11111222,11111222,11111222' 
LOOP,urn:ioos:station:wmo:lopl1:1,2013-05-01T07:34:00Z,28.8850,-90.0250,10.0,7.2,82.0,7.8,'11111222,11111222,11111222' 
LOOP,urn:ioos:station:wmo:lopl1:1,2013-05-01T07:49:00Z,28.8850,-90.0250,10.0,6.6,83.0,7.4,'11111222,11111222,11111222' 
LOOP,urn:ioos:station:wmo:lopl1:1,2013-05-01T08:04:00Z,28.8850,-90.0250,10.0,6.4,79.0,7.2,'11111222,11111222,11111222' 
LOOP,urn:ioos:station:wmo:lopl1:1,2013-05-01T08:19:00Z,28.8850,-90.0250,10.0,7.4,86.0,8.3,'11111222,11111222,11111222' 
LOOP,urn:ioos:station:wmo:lopl1:1,2013-05-01T08:34:00Z,28.8850,-90.0250,10.0,8.4,91.0,9.0,'11111222,11111222,11111222' 
LOOP,urn:ioos:station:wmo:lopl1:1,2013-05-01T08:49:00Z,28.8850,-90.0250,10.0,7.8,95.0,8.6,'11111222,11111222,11111222' 
LOOP,urn:ioos:station:wmo:lopl1:1,2013-05-01T09:09:00Z,28.8850,-90.0250,10.0,7.4,97.0,8.2,'11111222,11111222,11111222' 
LOOP,urn:ioos:station:wmo:lopl1:1,2013-05-01T09:24:00Z,28.8850,-90.0250,10.0,6.9,89.0,7.9,'11111222,11111222,11111222' 
LOOP,urn:ioos:station:wmo:lopl1:1,2013-05-01T09:39:00Z,28.8850,-90.0250,10.0,6.7,93.0,7.3,'11111222,11111222,11111222' 
LOOP,urn:ioos:station:wmo:lopl1:1,2013-05-01T09:54:00Z,28.8850,-90.0250,10.0,6.5,89.0,7.2,'11111222,11111222,11111222' 
LOOP,urn:ioos:station:wmo:lopl1:1,2013-05-01T10:09:00Z,28.8850,-90.0250,10.0,5.9,94.0,6.3,'11111222,11111222,11111222' 
LOOP,urn:ioos:station:wmo:lopl1:1,2013-05-01T10:24:00Z,28.8850,-90.0250,10.0,6.2,96.0,6.8,'11111222,11111222,11111222' 
LOOP,urn:ioos:station:wmo:lopl1:1,2013-05-01T10:39:00Z,28.8850,-90.0250,10.0,6.2,95.0,6.7,'11111222,11111222,11111222' 
LOOP,urn:ioos:station:wmo:lopl1:1,2013-05-01T10:54:00Z,28.8850,-90.0250,10.0,5.7,89.0,6.4,'11111222,11111222,11111222' 
LOOP,urn:ioos:station:wmo:lopl1:1,2013-05-01T11:09:00Z,28.8850,-90.0250,10.0,5.4,86.0,6.2,'11111222,11111222,11111222' 
LOOP,urn:ioos:station:wmo:lopl1:1,2013-05-01T11:24:00Z,28.8850,-90.0250,10.0,5.6,80.0,6.8,'11111222,11111222,11111222' 
LOOP,urn:ioos:station:wmo:lopl1:1,2013-05-01T11:39:00Z,28.8850,-90.0250,10.0,3.7,103.0,4.9,'11111222,11111222,11111222' 
LOOP,urn:ioos:station:wmo:lopl1:1,2013-05-01T11:54:00Z,28.8850,-90.0250,10.0,4.8,84.0,6.5,'11111222,11111222,11111222' 
LOOP,urn:ioos:station:wmo:lopl1:1,2013-05-01T12:09:00Z,28.8850,-90.0250,10.0,6.5,87.0,8.5,'11111222,11111222,11111222' 
LOOP,urn:ioos:station:wmo:lopl1:1,2013-05-01T12:24:00Z,28.8850,-90.0250,10.0,8.4,108.0,9.4,'11111222,11111222,11111222' 
LOOP,urn:ioos:station:wmo:lopl1:1,2013-05-01T12:39:00Z,28.8850,-90.0250,10.0,7.7,100.0,10.5,'11111222,11111222,11111222' 
LOOP,urn:ioos:station:wmo:lopl1:1,2013-05-01T12:54:00Z,28.8850,-90.0250,10.0,6.3,112.0,7.9,'11111222,11111222,11111222' 
LOOP,urn:ioos:station:wmo:lopl1:1,2013-05-01T13:09:00Z,28.8850,-90.0250,10.0,7.7,87.0,9.3,'11111222,11111222,11111222' 
LOOP,urn:ioos:station:wmo:lopl1:1,2013-05-01T13:24:00Z,28.8850,-90.0250,10.0,7.6,134.0,10.5,'11111222,11111222,11111222' 
LOOP,urn:ioos:station:wmo:lopl1:1,2013-05-01T13:39:00Z,28.8850,-90.0250,10.0,6.7,131.0,7.6,'11111222,11111222,11111222' 
LOOP,urn:ioos:station:wmo:lopl1:1,2013-05-01T13:54:00Z,28.8850,-90.0250,10.0,8.4,91.0,9.3,'11111222,11111222,11111222' 
LOOP,urn:ioos:station:wmo:lopl1:1,2013-05-01T14:09:00Z,28.8850,-90.0250,10.0,8.4,117.0,9.0,'11111222,11111222,11111222' 
LOOP,urn:ioos:station:wmo:lopl1:1,2013-05-01T14:24:00Z,28.8850,-90.0250,10.0,7.9,129.0,8.6,'11111222,11111222,11111222' 
LOOP,urn:ioos:station:wmo:lopl1:1,2013-05-01T14:39:00Z,28.8850,-90.0250,10.0,6.0,135.0,6.7,'11111222,11111222,11111222' 
LOOP,urn:ioos:station:wmo:lopl1:1,2013-05-01T14:54:00Z,28.8850,-90.0250,10.0,6.4,137.0,7.2,'11111222,11111222,11111222' 
LOOP,urn:ioos:station:wmo:lopl1:1,2013-05-01T15:09:00Z,28.8850,-90.0250,10.0,6.4,142.0,7.1,'11111222,11111222,11111222' 
LOOP,urn:ioos:station:wmo:lopl1:1,2013-05-01T15:24:00Z,28.8850,-90.0250,10.0,6.2,139.0,6.9,'11111222,11111222,11111222' 
LOOP,urn:ioos:station:wmo:lopl1:1,2013-05-01T15:39:00Z,28.8850,-90.0250,10.0,7.3,145.0,7.9,'11111222,11111222,11111222' 
LOOP,urn:ioos:station:wmo:lopl1:1,2013-05-01T15:54:00Z,28.8850,-90.0250,10.0,8.2,151.0,8.8,'11111222,11111222,11111222' 
LOOP,urn:ioos:station:wmo:lopl1:1,2013-05-01T16:09:00Z,28.8850,-90.0250,10.0,7.9,144.0,8.5,'11111222,11111222,11111222' 
LOOP,urn:ioos:station:wmo:lopl1:1,2013-05-01T16:24:00Z,28.8850,-90.0250,10.0,7.8,145.0,8.2,'11111222,11111222,11111222' 
LOOP,urn:ioos:station:wmo:lopl1:1,2013-05-01T16:39:00Z,28.8850,-90.0250,10.0,6.1,146.0,6.5,'11111222,11111222,11111222' 
LOOP,urn:ioos:station:wmo:lopl1:1,2013-05-01T16:54:00Z,28.8850,-90.0250,10.0,5.8,142.0,6.5,'11111222,11111222,11111222' 
LOOP,urn:ioos:station:wmo:lopl1:1,2013-05-01T17:09:00Z,28.8850,-90.0250,10.0,4.8,143.0,5.2,'11111222,11111222,11111222' 
LOOP,urn:ioos:station:wmo:lopl1:1,2013-05-01T17:24:00Z,28.8850,-90.0250,10.0,5.4,148.0,5.5,'11111222,11111222,11111222' 
LOOP,urn:ioos:station:wmo:lopl1:1,2013-05-01T17:39:00Z,28.8850,-90.0250,10.0,5.0,156.0,5.5,'11111222,11111222,11111222' 
LOOP,urn:ioos:station:wmo:lopl1:1,2013-05-01T17:54:00Z,28.8850,-90.0250,10.0,5.1,164.0,5.7,'11111222,11111222,11111222' 
LOOP,urn:ioos:station:wmo:lopl1:1,2013-05-01T18:09:00Z,28.8850,-90.0250,10.0,4.1,164.0,5.5,'11111222,11111222,11111222' 
LOOP,urn:ioos:station:wmo:lopl1:1,2013-05-01T18:24:00Z,28.8850,-90.0250,10.0,4.5,166.0,5.0,'11111222,11111222,11111222' 
LOOP,urn:ioos:station:wmo:lopl1:1,2013-05-01T18:44:00Z,28.8850,-90.0250,10.0,3.3,200.0,5.0,'11111222,11111222,11111222' 
LOOP,urn:ioos:station:wmo:lopl1:1,2013-05-01T18:59:00Z,28.8850,-90.0250,10.0,2.6,196.0,3.6,'11111222,11111222,11111222' 
LOOP,urn:ioos:station:wmo:lopl1:1,2013-05-01T19:14:00Z,28.8850,-90.0250,10.0,4.1,211.0,4.7,'11111222,11111222,11111222' 
LOOP,urn:ioos:station:wmo:lopl1:1,2013-05-01T19:29:00Z,28.8850,-90.0250,10.0,3.3,214.0,4.1,'11111222,11111222,11111222' 
LOOP,urn:ioos:station:wmo:lopl1:1,2013-05-01T19:44:00Z,28.8850,-90.0250,10.0,3.8,223.0,4.3,'11111222,11111222,11111222' 
LOOP,urn:ioos:station:wmo:lopl1:1,2013-05-01T19:59:00Z,28.8850,-90.0250,10.0,4.5,232.0,5.1,'11111222,11111222,11111222' 
LOOP,urn:ioos:station:wmo:lopl1:1,2013-05-01T20:14:00Z,28.8850,-90.0250,10.0,4.0,233.0,5.3,'11111222,11111222,11111222' 
LOOP,urn:ioos:station:wmo:lopl1:1,2013-05-01T20:29:00Z,28.8850,-90.0250,10.0,2.3,272.0,4.1,'11111222,11111222,11111222' 
LOOP,urn:ioos:station:wmo:lopl1:1,2013-05-01T20:44:00Z,28.8850,-90.0250,10.0,2.3,290.0,3.9,'11111222,11111222,11111222' 
LOOP,urn:ioos:station:wmo:lopl1:1,2013-05-01T20:59:00Z,28.8850,-90.0250,10.0,3.1,278.0,4.4,'11111222,11111222,11111222' 
LOOP,urn:ioos:station:wmo:lopl1:1,2013-05-01T21:14:00Z,28.8850,-90.0250,10.0,3.2,265.0,4.4,'11111222,11111222,11111222' 
LOOP,urn:ioos:station:wmo:lopl1:1,2013-05-01T21:29:00Z,28.8850,-90.0250,10.0,3.8,282.0,4.8,'11111222,11111222,11111222' 
LOOP,urn:ioos:station:wmo:lopl1:1,2013-05-01T21:44:00Z,28.8850,-90.0250,10.0,3.9,291.0,4.6,'11111222,11111222,11111222' 
LOOP,urn:ioos:station:wmo:lopl1:1,2013-05-01T21:59:00Z,28.8850,-90.0250,10.0,4.0,299.0,5.0,'11111222,11111222,11111222' 
LOOP,urn:ioos:station:wmo:lopl1:1,2013-05-01T22:14:00Z,28.8850,-90.0250,10.0,3.0,280.0,3.8,'11111222,11111222,11111222' 
LOOP,urn:ioos:station:wmo:lopl1:1,2013-05-01T22:29:00Z,28.8850,-90.0250,10.0,2.6,283.0,3.1,'11111222,11111222,11111222' 
LOOP,urn:ioos:station:wmo:lopl1:1,2013-05-01T22:44:00Z,28.8850,-90.0250,10.0,1.3,282.0,2.9,'11111222,11111222,11111222' 
LOOP,urn:ioos:station:wmo:lopl1:1,2013-05-01T22:59:00Z,28.8850,-90.0250,10.0,1.2,278.0,2.2,'11111222,11111222,11111222' 
LOOP,urn:ioos:station:wmo:lopl1:1,2013-05-01T23:14:00Z,28.8850,-90.0250,10.0,1.9,291.0,2.5,'11111222,11111222,11111222' 
LOOP,urn:ioos:station:wmo:lopl1:1,2013-05-01T23:29:00Z,28.8850,-90.0250,10.0,1.3,-9999.0,2.3,'11111222,99999999,11111222' 
LOOP,urn:ioos:station:wmo:lopl1:1,2013-05-01T23:44:00Z,28.8850,-90.0250,10.0,1.8,293.0,2.3,'11111222,11111222,11111222' 
LOOP,urn:ioos:station:wmo:lopl1:1,2013-05-01T23:59:00Z,28.8850,-90.0250,10.0,2.2,307.0,2.8,'11111222,11111222,11111222' 
LOOP,urn:ioos:station:wmo:lopl1:1,2013-05-02T00:14:00Z,28.8850,-90.0250,10.0,1.6,297.0,2.7,'11111222,11111222,11111222' 
LOOP,urn:ioos:station:wmo:lopl1:1,2013-05-02T00:29:00Z,28.8850,-90.0250,10.0,2.3,304.0,3.0,'11111222,11111222,11111222' 
LOOP,urn:ioos:station:wmo:lopl1:1,2013-05-02T00:44:00Z,28.8850,-90.0250,10.0,2.4,300.0,3.4,'11111222,11111222,11111222' 
LOOP,urn:ioos:station:wmo:lopl1:1,2013-05-02T00:59:00Z,28.8850,-90.0250,10.0,2.1,303.0,2.9,'11111222,11111222,11111222' 
LOOP,urn:ioos:station:wmo:lopl1:1,2013-05-02T01:14:00Z,28.8850,-90.0250,10.0,2.0,285.0,2.6,'11111222,11111222,11111222' 
LOOP,urn:ioos:station:wmo:lopl1:1,2013-05-02T01:29:00Z,28.8850,-90.0250,10.0,1.6,276.0,2.3,'11111222,11111222,11111222' 
LOOP,urn:ioos:station:wmo:lopl1:1,2013-05-02T01:44:00Z,28.8850,-90.0250,10.0,1.6,284.0,2.3,'11111222,11111222,11111222' 
LOOP,urn:ioos:station:wmo:lopl1:1,2013-05-02T01:59:00Z,28.8850,-90.0250,10.0,0.8,301.0,1.8,'11111222,11111222,11111222' 
LOOP,urn:ioos:station:wmo:lopl1:1,2013-05-02T02:19:00Z,28.8850,-90.0250,10.0,2.5,-9999.0,2.8,'11111222,99999999,11111222' 
LOOP,urn:ioos:station:wmo:lopl1:1,2013-05-02T02:34:00Z,28.8850,-90.0250,10.0,2.6,-9999.0,3.6,'11111222,99999999,11111222' 
LOOP,urn:ioos:station:wmo:lopl1:1,2013-05-02T02:49:00Z,28.8850,-90.0250,10.0,2.6,-9999.0,3.5,'11111222,99999999,11111222' 
LOOP,urn:ioos:station:wmo:lopl1:1,2013-05-02T03:04:00Z,28.8850,-90.0250,10.0,2.8,-9999.0,3.3,'11111222,99999999,11111222' 
LOOP,urn:ioos:station:wmo:lopl1:1,2013-05-02T03:19:00Z,28.8850,-90.0250,10.0,3.5,-9999.0,3.8,'11111222,99999999,11111222' 
LOOP,urn:ioos:station:wmo:lopl1:1,2013-05-02T03:34:00Z,28.8850,-90.0250,10.0,3.8,-9999.0,4.0,'11111222,99999999,11111222' 
LOOP,urn:ioos:station:wmo:lopl1:1,2013-05-02T03:49:00Z,28.8850,-90.0250,10.0,4.5,-9999.0,4.8,'11111222,99999999,11111222' 
LOOP,urn:ioos:station:wmo:lopl1:1,2013-05-02T04:04:00Z,28.8850,-90.0250,10.0,4.6,-9999.0,4.8,'11111222,99999999,11111222' 
LOOP,urn:ioos:station:wmo:lopl1:1,2013-05-02T04:19:00Z,28.8850,-90.0250,10.0,5.3,-9999.0,5.7,'11111222,99999999,11111222' 
LOOP,urn:ioos:station:wmo:lopl1:1,2013-05-02T04:34:00Z,28.8850,-90.0250,10.0,5.1,-9999.0,5.6,'11111222,99999999,11111222' 
LOOP,urn:ioos:station:wmo:lopl1:1,2013-05-02T04:49:00Z,28.8850,-90.0250,10.0,4.7,-9999.0,5.7,'11111222,99999999,11111222' 
LOOP,urn:ioos:station:wmo:lopl1:1,2013-05-02T05:04:00Z,28.8850,-90.0250,10.0,3.5,-9999.0,5.1,'11111222,99999999,11111222' 
LOOP,urn:ioos:station:wmo:lopl1:1,2013-05-02T05:19:00Z,28.8850,-90.0250,10.0,3.4,-9999.0,5.1,'11111222,99999999,11111222' 
LOOP,urn:ioos:station:wmo:lopl1:1,2013-05-02T05:34:00Z,28.8850,-90.0250,10.0,2.2,-9999.0,3.6,'11111222,99999999,11111222' 
LOOP,urn:ioos:station:wmo:lopl1:1,2013-05-02T05:49:00Z,28.8850,-90.0250,10.0,3.4,274.0,4.6,'11111222,11111222,11111222' 
LOOP,urn:ioos:station:wmo:lopl1:1,2013-05-02T06:04:00Z,28.8850,-90.0250,10.0,3.1,297.0,4.3,'11111222,11111222,11111222' 
LOOP,urn:ioos:station:wmo:lopl1:1,2013-05-02T06:19:00Z,28.8850,-90.0250,10.0,1.6,308.0,2.8,'11111222,11111222,11111222' 
LOOP,urn:ioos:station:wmo:lopl1:1,2013-05-02T06:34:00Z,28.8850,-90.0250,10.0,1.7,293.0,2.1,'11111222,11111222,11111222' 
LOOP,urn:ioos:station:wmo:lopl1:1,2013-05-02T06:49:00Z,28.8850,-90.0250,10.0,0.7,349.0,1.8,'11111222,11111222,11111222' 
LOOP,urn:ioos:station:wmo:lopl1:1,2013-05-02T07:04:00Z,28.8850,-90.0250,10.0,1.2,14.0,1.5,'11111222,11111222,11111222' 
LOOP,urn:ioos:station:wmo:lopl1:1,2013-05-02T07:19:00Z,28.8850,-90.0250,10.0,0.7,64.0,0.9,'11111222,11111222,11111222' 
LOOP,urn:ioos:station:wmo:lopl1:1,2013-05-02T07:34:00Z,28.8850,-90.0250,10.0,0.9,52.0,1.2,'11111222,11111222,11111222' 
LOOP,urn:ioos:station:wmo:lopl1:1,2013-05-02T07:49:00Z,28.8850,-90.0250,10.0,1.2,29.0,1.5,'11111222,11111222,11111222' 
LOOP,urn:ioos:station:wmo:lopl1:1,2013-05-02T08:04:00Z,28.8850,-90.0250,10.0,0.3,0.0,0.7,'11111222,11111222,11111222' 
LOOP,urn:ioos:station:wmo:lopl1:1,2013-05-02T08:19:00Z,28.8850,-90.0250,10.0,1.2,297.0,1.4,'11111222,11111222,11111222' 
LOOP,urn:ioos:station:wmo:lopl1:1,2013-05-02T08:34:00Z,28.8850,-90.0250,10.0,1.6,296.0,2.0,'11111222,11111222,11111222' 
LOOP,urn:ioos:station:wmo:lopl1:1,2013-05-02T08:49:00Z,28.8850,-90.0250,10.0,1.5,302.0,1.9,'11111222,11111222,11111222' 
LOOP,urn:ioos:station:wmo:lopl1:1,2013-05-02T09:04:00Z,28.8850,-90.0250,10.0,1.4,8.0,1.8,'11111222,11111222,11111222' 
LOOP,urn:ioos:station:wmo:lopl1:1,2013-05-02T09:19:00Z,28.8850,-90.0250,10.0,2.0,17.0,2.5,'11111222,11111222,11111222' 
LOOP,urn:ioos:station:wmo:lopl1:1,2013-05-02T09:34:00Z,28.8850,-90.0250,10.0,1.2,350.0,1.8,'11111222,11111222,11111222' 
LOOP,urn:ioos:station:wmo:lopl1:1,2013-05-02T09:49:00Z,28.8850,-90.0250,10.0,1.9,332.0,2.3,'11111222,11111222,11111222' 
LOOP,urn:ioos:station:wmo:lopl1:1,2013-05-02T10:04:00Z,28.8850,-90.0250,10.0,1.1,350.0,1.7,'11111222,11111222,11111222' 
LOOP,urn:ioos:station:wmo:lopl1:1,2013-05-02T10:19:00Z,28.8850,-90.0250,10.0,2.1,12.0,2.6,'11111222,11111222,11111222' 
LOOP,urn:ioos:station:wmo:lopl1:1,2013-05-02T10:34:00Z,28.8850,-90.0250,10.0,3.3,13.0,3.9,'11111222,11111222,11111222' 
LOOP,urn:ioos:station:wmo:lopl1:1,2013-05-02T10:49:00Z,28.8850,-90.0250,10.0,3.8,12.0,4.4,'11111222,11111222,11111222' 
LOOP,urn:ioos:station:wmo:lopl1:1,2013-05-02T11:09:00Z,28.8850,-90.0250,10.0,3.4,10.0,4.0,'11111222,11111222,11111222' 
LOOP,urn:ioos:station:wmo:lopl1:1,2013-05-02T11:24:00Z,28.8850,-90.0250,10.0,3.4,8.0,4.7,'11111222,11111222,11111222' 
LOOP,urn:ioos:station:wmo:lopl1:1,2013-05-02T11:39:00Z,28.8850,-90.0250,10.0,3.4,359.0,4.0,'11111222,11111222,11111222' 
LOOP,urn:ioos:station:wmo:lopl1:1,2013-05-02T11:54:00Z,28.8850,-90.0250,10.0,4.4,6.0,5.1,'11111222,11111222,11111222' 
LOOP,urn:ioos:station:wmo:lopl1:1,2013-05-02T12:09:00Z,28.8850,-90.0250,10.0,4.2,6.0,4.9,'11111222,11111222,11111222' 
LOOP,urn:ioos:station:wmo:lopl1:1,2013-05-02T12:24:00Z,28.8850,-90.0250,10.0,3.9,9.0,5.2,'11111222,11111222,11111222' 
LOOP,urn:ioos:station:wmo:lopl1:1,2013-05-02T12:39:00Z,28.8850,-90.0250,10.0,3.7,14.0,4.2,'11111222,11111222,11111222' 
LOOP,urn:ioos:station:wmo:lopl1:1,2013-05-02T12:54:00Z,28.8850,-90.0250,10.0,4.1,6.0,4.9,'11111222,11111222,11111222' 
LOOP,urn:ioos:station:wmo:lopl1:1,2013-05-02T13:09:00Z,28.8850,-90.0250,10.0,3.6,1.0,4.4,'11111222,11111222,11111222' 
LOOP,urn:ioos:station:wmo:lopl1:1,2013-05-02T13:24:00Z,28.8850,-90.0250,10.0,2.6,6.0,4.1,'11111222,11111222,11111222' 
LOOP,urn:ioos:station:wmo:lopl1:1,2013-05-02T13:39:00Z,28.8850,-90.0250,10.0,2.0,350.0,2.8,'11111222,11111222,11111222' 
LOOP,urn:ioos:station:wmo:lopl1:1,2013-05-02T13:54:00Z,28.8850,-90.0250,10.0,1.8,352.0,2.5,'11111222,11111222,11111222' 
LOOP,urn:ioos:station:wmo:lopl1:1,2013-05-02T14:24:00Z,28.8850,-90.0250,10.0,2.1,0.0,2.8,'11111222,11111222,11111222' 
LOOP,urn:ioos:station:wmo:lopl1:1,2013-05-02T14:39:00Z,28.8850,-90.0250,10.0,2.1,335.0,3.2,'11111222,11111222,11111222' 
LOOP,urn:ioos:station:wmo:lopl1:1,2013-05-02T14:54:00Z,28.8850,-90.0250,10.0,2.3,333.0,3.4,'11111222,11111222,11111222' 
LOOP,urn:ioos:station:wmo:lopl1:1,2013-05-02T15:09:00Z,28.8850,-90.0250,10.0,3.3,2.0,4.4,'11111222,11111222,11111222' 
LOOP,urn:ioos:station:wmo:lopl1:1,2013-05-02T15:24:00Z,28.8850,-90.0250,10.0,2.3,338.0,3.2,'11111222,11111222,11111222' 
LOOP,urn:ioos:station:wmo:lopl1:1,2013-05-02T15:39:00Z,28.8850,-90.0250,10.0,1.5,0.0,2.5,'11111222,11111222,11111222' 
LOOP,urn:ioos:station:wmo:lopl1:1,2013-05-02T15:54:00Z,28.8850,-90.0250,10.0,1.4,347.0,2.1,'11111222,11111222,11111222' 
LOOP,urn:ioos:station:wmo:lopl1:1,2013-05-02T16:09:00Z,28.8850,-90.0250,10.0,1.4,348.0,2.4,'11111222,11111222,11111222' 
LOOP,urn:ioos:station:wmo:lopl1:1,2013-05-02T16:24:00Z,28.8850,-90.0250,10.0,1.6,342.0,2.6,'11111222,11111222,11111222' 
LOOP,urn:ioos:station:wmo:lopl1:1,2013-05-02T16:39:00Z,28.8850,-90.0250,10.0,2.0,0.0,3.2,'11111222,11111222,11111222' 
LOOP,urn:ioos:station:wmo:lopl1:1,2013-05-02T16:54:00Z,28.8850,-90.0250,10.0,2.5,8.0,3.1,'11111222,11111222,11111222' 
LOOP,urn:ioos:station:wmo:lopl1:1,2013-05-02T17:09:00Z,28.8850,-90.0250,10.0,2.0,13.0,2.8,'11111222,11111222,11111222' 
LOOP,urn:ioos:station:wmo:lopl1:1,2013-05-02T17:24:00Z,28.8850,-90.0250,10.0,1.4,353.0,2.2,'11111222,11111222,11111222' 
LOOP,urn:ioos:station:wmo:lopl1:1,2013-05-02T17:39:00Z,28.8850,-90.0250,10.0,1.8,348.0,3.1,'11111222,11111222,11111222' 
LOOP,urn:ioos:station:wmo:lopl1:1,2013-05-02T18:09:00Z,28.8850,-90.0250,10.0,1.7,355.0,3.2,'11111222,11111222,11111222' 
LOOP,urn:ioos:station:wmo:lopl1:1,2013-05-02T18:24:00Z,28.8850,-90.0250,10.0,2.3,355.0,3.1,'11111222,11111222,11111222' 
LOOP,urn:ioos:station:wmo:lopl1:1,2013-05-02T18:39:00Z,28.8850,-90.0250,10.0,1.7,0.0,3.0,'11111222,11111222,11111222' 
LOOP,urn:ioos:station:wmo:lopl1:1,2013-05-02T18:54:00Z,28.8850,-90.0250,10.0,1.5,353.0,2.2,'11111222,11111222,11111222' 
LOOP,urn:ioos:station:wmo:lopl1:1,2013-05-02T19:09:00Z,28.8850,-90.0250,10.0,1.3,329.0,2.5,'11111222,11111222,11111222' 
LOOP,urn:ioos:station:wmo:lopl1:1,2013-05-02T19:24:00Z,28.8850,-90.0250,10.0,1.4,330.0,2.4,'11111222,11111222,11111222' 
LOOP,urn:ioos:station:wmo:lopl1:1,2013-05-02T19:39:00Z,28.8850,-90.0250,10.0,1.2,345.0,2.2,'11111222,11111222,11111222' 
LOOP,urn:ioos:station:wmo:lopl1:1,2013-05-02T19:54:00Z,28.8850,-90.0250,10.0,1.2,284.0,2.2,'11111222,11111222,11111222' 
LOOP,urn:ioos:station:wmo:lopl1:1,2013-05-02T20:09:00Z,28.8850,-90.0250,10.0,2.4,289.0,3.5,'11111222,11111222,11111222' 
LOOP,urn:ioos:station:wmo:lopl1:1,2013-05-02T20:24:00Z,28.8850,-90.0250,10.0,2.2,307.0,3.1,'11111222,11111222,11111222' 
LOOP,urn:ioos:station:wmo:lopl1:1,2013-05-02T20:39:00Z,28.8850,-90.0250,10.0,2.1,299.0,2.8,'11111222,11111222,11111222' 
LOOP,urn:ioos:station:wmo:lopl1:1,2013-05-02T20:54:00Z,28.8850,-90.0250,10.0,2.2,292.0,3.4,'11111222,11111222,11111222' 
LOOP,urn:ioos:station:wmo:lopl1:1,2013-05-02T21:14:00Z,28.8850,-90.0250,10.0,1.8,304.0,3.0,'11111222,11111222,11111222' 
LOOP,urn:ioos:station:wmo:lopl1:1,2013-05-02T21:29:00Z,28.8850,-90.0250,10.0,1.8,311.0,2.6,'11111222,11111222,11111222' 
LOOP,urn:ioos:station:wmo:lopl1:1,2013-05-02T21:44:00Z,28.8850,-90.0250,10.0,1.9,312.0,3.1,'11111222,11111222,11111222' 
LOOP,urn:ioos:station:wmo:lopl1:1,2013-05-02T21:59:00Z,28.8850,-90.0250,10.0,2.2,306.0,3.2,'11111222,11111222,11111222' 
LOOP,urn:ioos:station:wmo:lopl1:1,2013-05-02T22:14:00Z,28.8850,-90.0250,10.0,1.7,33.0,2.4,'11111222,11111222,11111222' 
LOOP,urn:ioos:station:wmo:lopl1:1,2013-05-02T22:29:00Z,28.8850,-90.0250,10.0,1.7,315.0,2.4,'11111222,11111222,11111222' 
LOOP,urn:ioos:station:wmo:lopl1:1,2013-05-02T22:44:00Z,28.8850,-90.0250,10.0,2.3,305.0,2.9,'11111222,11111222,11111222' 
LOOP,urn:ioos:station:wmo:lopl1:1,2013-05-02T22:59:00Z,28.8850,-90.0250,10.0,2.7,297.0,3.5,'11111222,11111222,11111222' 
LOOP,urn:ioos:station:wmo:lopl1:1,2013-05-02T23:14:00Z,28.8850,-90.0250,10.0,2.8,303.0,3.7,'11111222,11111222,11111222' 
LOOP,urn:ioos:station:wmo:lopl1:1,2013-05-02T23:29:00Z,28.8850,-90.0250,10.0,3.3,303.0,4.4,'11111222,11111222,11111222' 
LOOP,urn:ioos:station:wmo:lopl1:1,2013-05-02T23:44:00Z,28.8850,-90.0250,10.0,2.9,295.0,3.9,'11111222,11111222,11111222' 
LOOP,urn:ioos:station:wmo:lopl1:1,2013-05-02T23:59:00Z,28.8850,-90.0250,10.0,2.7,306.0,3.8,'11111222,11111222,11111222' 
LOOP,urn:ioos:station:wmo:lopl1:1,2013-05-03T00:14:00Z,28.8850,-90.0250,10.0,2.3,322.0,4.0,'11111222,11111222,11111222' 
LOOP,urn:ioos:station:wmo:lopl1:1,2013-05-03T00:29:00Z,28.8850,-90.0250,10.0,5.3,35.0,7.3,'11111222,11111222,11111222' 
LOOP,urn:ioos:station:wmo:lopl1:1,2013-05-03T00:44:00Z,28.8850,-90.0250,10.0,5.1,55.0,6.3,'11111222,11111222,11111222' 
LOOP,urn:ioos:station:wmo:lopl1:1,2013-05-03T00:59:00Z,28.8850,-90.0250,10.0,5.5,68.0,6.8,'11111222,11111222,11111222' 
LOOP,urn:ioos:station:wmo:lopl1:1,2013-05-03T01:14:00Z,28.8850,-90.0250,10.0,6.7,75.0,7.4,'11111222,11111222,11111222' 
LOOP,urn:ioos:station:wmo:lopl1:1,2013-05-03T01:29:00Z,28.8850,-90.0250,10.0,5.8,104.0,6.8,'11111222,11111222,11111222' 
LOOP,urn:ioos:station:wmo:lopl1:1,2013-05-03T01:44:00Z,28.8850,-90.0250,10.0,6.2,125.0,7.2,'11111222,11111222,11111222' 
LOOP,urn:ioos:station:wmo:lopl1:1,2013-05-03T01:59:00Z,28.8850,-90.0250,10.0,4.8,111.0,5.7,'11111222,11111222,11111222' 